Regional Weather Roundup
Issued by NWS

Home | Current Version | Previous Version | Graphics & Text | Print | Product List | Glossary On
Versions: 1 2 3 4 5 6 7 8 9 10 11 12 13 14 15 16 17 18 19 20 21 22 23 24 25 26 27 28 29 30 31 32 33 34 35 36 37 38 39 40 41 42 43 44 45 46 47 48 49 50
000
ASUS43 KLOT 301004
RWRIL

ILLINOIS REGIONAL WEATHER ROUNDUP
NATIONAL WEATHER SERVICE CHICAGO/ROMEOVILLE IL
500 AM CDT FRI SEP 30 2016

NOTE: "FAIR" INDICATES FEW OR NO CLOUDS BELOW 12,000 FEET WITH NO
SIGNIFICANT WEATHER AND/OR OBSTRUCTIONS TO VISIBILITY.

* THESE STATIONS ARE NOT UNDER NWS QUALITY CONTROL. THEY ALSO MAY NOT
  REPORT WEATHER SUCH AS PRECIPITATION OR FOG.

ILZ001-002-007-009-015-016-024-301100-
NORTHWEST ILLINOIS

CITY           SKY/WX    TMP DP  RH WIND       PRES   REMARKS
MOLINE         CLOUDY    60  53  77 N8        30.20F
STERLING*      CLOUDY    59  55  87 N8        30.19F
$$

ILZ003-004-008-010-011-017-018-301100-
NORTH CENTRAL ILLINOIS

CITY           SKY/WX    TMP DP  RH WIND       PRES   REMARKS
ROCKFORD       CLOUDY    60  56  86 N15       30.21F
FREEPORT*      CLOUDY    57  54  89 N7        30.23S
ROCHELLE*      CLOUDY    58  57  96 N10G17    30.18S FOG
$$

ILZ005-006-012>014-019>023-301100-
NORTHEAST ILLINOIS

CITY           SKY/WX    TMP DP  RH WIND       PRES   REMARKS
CHICAGO-OHARE  CLOUDY    61  58  90 NE13      30.15S
CHICAGO-MIDWAY CLOUDY    63  58  83 NE13      30.13S
AURORA         CLOUDY    61  58  90 NE12      30.16R
LANSING*       LGT RAIN  60  60  99 NE8       30.13S
JOLIET*        RAIN      61  60  97 NE8       30.14S
WAUKEGAN       CLOUDY    62  58  86 NE10      30.17S
DUPAGE AIRPORT CLOUDY    60  58  92 N10       30.15S FOG
KANKAKEE*      DRIZZLE   59  58  96 N7        30.11F
WHEELING       CLOUDY    62  57  83 NE10      30.17S
MORRIS*        CLOUDY    60  58  94 CALM      30.12F
ROMEOVILLE*    DRIZZLE   59  59 100 NE8       30.14S
NORTHERLY ISL    N/A     61  57  87 NE16        N/A
$$

LMZ740>746-301100-
SOUTHERN LAKE MICHIGAN

STATION/POSITION SKY/WX   TEMP    WIND        PRES    VSBY  WAVE
                          AIR SEA DIR/SP/G                  HT/PER
                          (F)     (DEG/KT/KT) (MB)    (MI)  (FT/S)
SOUTHERN BUOY              63 68   60/ 19/ 21 1021.3          5/ 6
WILMETTE HARBOR            61 56   80/ 14/ 19   N/A           6/ 7
HARRISON CRIB              64      50/ 22/ 24   N/A
BURNHAM HARBOR             61      50/ 14/ 17   N/A
CALUMET HARBOR             62      30/ 13/ 17 1019.9S
BURNS HARBOR               62      50/ 20/ 21 1020.3R
MICHIGAN CITY              60      20/ 18/ 20   N/A
MICHIGAN CITY 6N           61 64   40/ 16/ 21   N/A           6/ 6
ST. JOSEPH                 57 56   20/  8/ 10 1020.7F         4/ 6
$$

ILZ025>027-034>036-040-047-049-050-058-095>099-301100-
WEST-CENTRAL ILLINOIS

CITY           SKY/WX    TMP DP  RH WIND       PRES   REMARKS
QUINCY         PTCLDY    56  53  90 N10       30.18R
GALESBURG*     CLOUDY    58  54  86 N9        30.19S
MACOMB*        CLOUDY    58  54  85 N9        30.19F
PITTSFIELD*    CLOUDY    60  56  85 N7        30.17S
$$

ILZ028>032-037-038-041>044-048-051>054-059>061-301100-
CENTRAL ILLINOIS

CITY           SKY/WX    TMP DP  RH WIND       PRES   REMARKS
PONTIAC        CLOUDY    60  60 100 N8        30.13S FOG
BLOOMINGTON    LGT RAIN  59  58  96 N12       30.12F FOG
DECATUR        CLOUDY    61  58  90 N10       30.09F FOG
PEORIA         LGT RAIN  59  58  96 N8        30.15S FOG
LACON*         DRIZZLE   58  57  97 N8        30.14F
LINCOLN*       RAIN      60  60  99 N7        30.11F
SPRINGFIELD    CLOUDY    59  57  93 NW10      30.12F
TAYLORVILLE    NOT AVBL
$$

ILZ033-039-045-046-055>057-062-063-301100-
EAST-CENTRAL ILLINOIS

CITY           SKY/WX    TMP DP  RH WIND       PRES   REMARKS
CHAMPAIGN      CLOUDY    60  57  89 N12       30.06F
RANTOUL*       CLOUDY    61  59  95 N12       30.08F
MATTOON        CLOUDY    59  57  93 NW10      30.04F
PARIS*         CLOUDY    59  59 100 CALM      30.06R
$$

ILZ079-100>102-301100-
SOUTHWEST ILLINOIS

CITY           SKY/WX    TMP DP  RH WIND       PRES   REMARKS
ALTON          CLOUDY    58  57  94 NW6       30.13R FOG
CAHOKIA*       CLOUDY    61  56  83 N10       30.13R
SPARTA*        CLOUDY    59  58  95 NW8       30.11S
$$

ILZ064>066-069>071-074>076-080>082-084>086-088>090-092>094-301100-
SOUTH-CENTRAL ILLINOIS

CITY           SKY/WX    TMP DP  RH WIND       PRES   REMARKS
CARBONDALE     CLOUDY    59  59 100 NW6       30.08S
EFFINGHAM*     RAIN      60  60 100 NW6       30.08S
MT. VERNON     CLOUDY    57  52  82 CALM      30.08S
CENTRALIA*     LGT RAIN  60  59  97 NW7       30.07F
SALEM*         CLOUDY    60  58  92 NW5       30.08S FOG
METROPOLIS*    CLOUDY    59  58  94 NW3       30.07S
$$

ILZ067-068-072-073-078-083-087-091-301100-
SOUTHEAST ILLINOIS

CITY           SKY/WX    TMP DP  RH WIND       PRES   REMARKS
LAWRENCEVILLE  CLOUDY    59  57  93 N7        30.03S
FLORA*         CLOUDY    59  58  97 NW5       30.06F FOG
HARRISBURG*    CLOUDY    57  57 100 W6        30.06S FOG
ROBINSON*      LGT RAIN  58  58  99 N5        30.05S
CARMI*         PTCLDY    55  55 100 NW5       30.04S FOG
$$

ABBREVIATIONS USED IN REMARKS
   TC - TEMPERATURE IN CELSIUS
  WCI - WIND CHILL INDEX
   HX - HEAT INDEX
  VSB - VISIBILITY
$$





USA.gov is the U.S. government's official web portal to all federal, state and local government web resources and services.